Tracking 25372 objects as of 24-Jan-2022
HD Live streaming from Space Station
objects crossing your sky now

STARLINK-1225

Track STARLINK-1225 now!
10-day predictions
STARLINK-1225 is classified as:


NORAD ID: 45187
Int'l Code: 2020-012K
Perigee: 553.1 km
Apogee: 555.6 km
Inclination: 53.1 °
Period: 95.6 minutes
Semi major axis: 6925 km
RCS: Unknown
Launch date: February 17, 2020
Source: United States (US)
Launch site: AIR FORCE EASTERN TEST RANGE (AFETR)
aabbcc
Your satellite tracking list
Your tracking list is empty




NASA's NSSDC Master Catalog

Two Line Element Set (TLE):
1 45187U 20012K   22023.84208047  .00003158  00000-0  23079-3 0  9993
2 45187  53.0541 326.6245 0001767  64.4142 295.7029 15.06407077107868
Source of the keplerian elements: AFSPC